Weather in Marsyaty

Russia / Sverdlovsk Oblast     60°02′38″N   60°28′39″E
temp.,
°C
wind,
m/s
gust,
m/s
humid.,
%
clouds,
%
prec.,
mm/h
press.,
hPa
HPBL,
m
28 july, wed
wed2823:00+8w397514 0.0 1009279
02:00+9w4973100 0.0 1008600
05:00+9w3781100 0.1 1007612
08:00+10wnw45675 0.2 1007913
11:00+11wnw455796 0.2 10081294
14:00+12w565683 0.1 10081435
17:00+13wnw4852100 0.1 10071928
20:00+11w4860100 0.0 10081020
29 july, thu
thu2923:00+9wnw4882100 0.2 1008799
02:00+7w269370 0.3 1007196
05:00+7w378998 0.4 1007307
08:00+8wsw1390100 0.1 1006148
11:00+9ese1185100 0.2 1006349
14:00+12wnw247297 0.3 1006838
17:00+14nnw355899 0.5 10051094
20:00+13n017135 0.0 100524
30 july, fri
fri3023:00+7s119145 0.0 100610
02:00+7s1195100 0.0 100511
05:00+7nw0095100 0.0 100513
08:00+9ese119789 0.9 100554
11:00+11ese1298100 3.8 1005154
14:00+15e2380100 0.1 1003479
17:00+14ene2594100 0.7 1001192
20:00+13ne1198100 0.1 100129
31 july, sat
sat3123:00+12nnw2299100 0.5 100173
02:00+11nnw269984 0.0 1002229
05:00+10nw2599100 0.0 1004194
08:00+13n129372 0.0 1005302
11:00+16nne1281100 0.0 1006579
14:00+22w145888 0.1 10051196
17:00+22wsw257894 1.4 1006953
20:00+18s249282 1.3 100578
1 august, sun
sun123:00+16sse2295100 2.9 100442
02:00+16sw3998100 5.3 1004322
05:00+16sw259852 7.2 1004125
08:00+18wsw39919 0.2 1004557
11:00+23wsw356036 0.2 1004948
14:00+26wsw474622 0.0 10041794
17:00+26wsw59515 0.1 10041826
20:00+21w4967100 0.1 1004561